Content
SEND FEEDBACK

Daily
Averages
Monthly
Summary
United States of America

WINDSOR, MISSOURI


Home > North America > United States > Missouri
Elevation: 950 feet     Latitude: 38 33N     Longitude: 093 33W

WEATHER
 
SELECT A DAY
Number of Records: 134,374;   Date Range: 5/14/09 - 12/27/14
 
SHARE

PRINT THIS DATA

[ ← Previous Day ]
WEATHER ALMANAC - JANUARY 31, 2013
[ Next Day → ]
[ °C ]   °F
Weather ElementAverageHighLow
Temperature24.1 °F32 °F (10:35 am)12.2 °F (11:35 pm)
Dewpoint14.7 °F26.6 °F (9:15 am)3.2 °F (11:15 pm)
Humidity68.2 %86 % (1:35 am)47 % (3:15 pm)
Barometer30.18 in30.48 in (10:15 pm)29.96 in (5:15 am)

Weather ElementAverage
Weather ElementTotal
Precipitation---
Heating Degree Days42.9 (Base 65)
Averaged from 71 records on January 31, 2013
WEATHER CONDITIONS BREAKOUT
WIND DIRECTION BREAKOUT
WEATHER BY HOUR - JANUARY 31, 2013
[ °C ]   °F
Local TimeTemperatureDewpointHumidityBarometerVisibilityWind DirectionWind SpeedGust SpeedPrecipitationEventsConditions
12:35 AM26.6 °F19.4 °F74 %30.00 in10.0 miCalmMostly Cloudy
12:55 AM24.8 °F17.6 °F74 %30.00 in10.0 miCalmPartly Cloudy
1:15 AM24.8 °F19.4 °F80 %29.99 in10.0 miCalmClear
1:35 AM23.0 °F19.4 °F86 %30.00 in10.0 miCalmClear
1:55 AM23.0 °F19.4 °F86 %29.99 in10.0 miCalmClear
2:15 AM24.8 °F19.4 °F80 %29.99 in10.0 miCalmClear
2:35 AM24.8 °F19.4 °F80 %29.99 in10.0 miCalmClear
2:55 AM24.8 °F19.4 °F80 %29.99 in10.0 miCalmPartly Cloudy
3:15 AM26.6 °F19.4 °F74 %29.99 in10.0 miCalmPartly Cloudy
3:35 AM26.6 °F19.4 °F74 %29.99 in10.0 miCalmMostly Cloudy
3:55 AM26.6 °F21.2 °F80 %29.99 in10.0 miCalmOvercast
4:15 AM26.6 °F21.2 °F80 %29.99 in10.0 miCalmOvercast
4:35 AM28.4 °F21.2 °F74 %29.98 in10.0 miCalmOvercast
4:55 AM28.4 °F21.2 °F74 %29.97 in10.0 miCalmOvercast
5:15 AM28.4 °F21.2 °F74 %29.96 in9.0 miCalmOvercast
5:35 AM28.4 °F23.0 °F80 %29.97 in10.0 miCalmMostly Cloudy
5:55 AM28.4 °F23.0 °F80 %29.98 in9.0 miCalmMostly Cloudy
6:15 AM28.4 °F23.0 °F80 %29.98 in9.0 miCalmScattered Clouds
6:35 AM28.4 °F23.0 °F80 %29.98 in9.0 miCalmScattered Clouds
6:55 AM26.6 °F23.0 °F86 %29.99 in9.0 miCalmPartly Cloudy
7:15 AM26.6 °F23.0 °F86 %30.00 in8.0 miCalmClear
7:35 AM26.6 °F23.0 °F86 %30.01 in6.0 miCalmClear
7:55 AM26.6 °F23.0 °F86 %30.02 in6.0 miCalmClear
8:15 AM28.4 °F24.8 °F86 %30.04 in7.0 miCalmClear
8:35 AM30.2 °F24.8 °F80 %30.05 in7.0 miCalmClear
8:55 AM30.2 °F24.8 °F80 %30.06 in7.0 miCalmPartly Cloudy
9:15 AM30.2 °F26.6 °F86 %30.08 in8.0 miCalmMostly Cloudy
9:35 AM30.2 °F24.8 °F80 %30.08 in8.0 miCalmMostly Cloudy
9:55 AM30.2 °F23.0 °F75 %30.08 in8.0 miCalmScattered Clouds
10:15 AM30.2 °F23.0 °F75 %30.10 in8.0 miCalmPartly Cloudy
10:35 AM32.0 °F23.0 °F69 %30.10 in9.0 miCalmClear
10:55 AM32.0 °F21.2 °F64 %30.11 in9.0 miCalmScattered Clouds
11:15 AM32.0 °F21.2 °F64 %30.11 in9.0 miCalmPartly Cloudy
11:35 AM32.0 °F19.4 °F60 %30.13 in9.0 miCalmPartly Cloudy
11:55 AM30.2 °F19.4 °F64 %30.13 in9.0 miCalmPartly Cloudy
12:15 PM30.2 °F19.4 °F64 %30.15 in4.0 miCalmHaze
12:35 PM28.4 °F19.4 °F69 %30.17 in7.0 miCalmRainLight Rain
12:55 PM28.4 °F12.2 °F51 %30.18 in10.0 miCalmScattered Clouds
1:15 PM28.4 °F12.2 °F51 %30.19 in9.0 miCalmRainLight Rain
1:35 PM28.4 °F14.0 °F55 %30.19 in10.0 miCalmMostly Cloudy
1:55 PM26.6 °F10.4 °F51 %30.20 in10.0 miCalmOvercast
2:15 PM26.6 °F10.4 °F51 %30.22 in10.0 miCalmOvercast
2:35 PM26.6 °F10.4 °F51 %30.23 in10.0 miCalmMostly Cloudy
2:55 PM26.6 °F10.4 °F51 %30.24 in10.0 miCalmPartly Cloudy
3:15 PM26.6 °F8.6 °F47 %30.24 in9.0 miCalmClear
3:35 PM26.6 °F10.4 °F51 %30.24 in10.0 miCalmClear
3:55 PM26.6 °F8.6 °F47 %30.25 in10.0 miCalmClear
4:15 PM24.8 °F8.6 °F50 %30.26 in9.0 miCalmPartly Cloudy
4:35 PM26.6 °F10.4 °F51 %30.27 in9.0 miCalmClear
4:55 PM23.0 °F8.6 °F54 %30.28 in9.0 miCalmClear
5:15 PM23.0 °F8.6 °F54 %30.29 in10.0 miCalmClear
5:35 PM21.2 °F8.6 °F58 %30.31 in9.0 miCalmClear
5:55 PM19.4 °F5.0 °F54 %30.32 in10.0 miCalmClear
6:15 PM17.6 °F5.0 °F58 %30.33 in10.0 miCalmClear
6:35 PM17.6 °F5.0 °F58 %30.36 in10.0 miCalmClear
6:55 PM17.6 °F5.0 °F58 %30.37 in10.0 miCalmClear
7:15 PM15.8 °F5.0 °F62 %30.38 in10.0 miCalmClear
7:35 PM15.8 °F6.8 °F68 %30.39 in10.0 miCalmClear
7:55 PM15.8 °F6.8 °F68 %30.40 in10.0 miCalmClear
8:15 PM15.8 °F5.0 °F62 %30.42 in10.0 miCalmClear
8:35 PM14.0 °F5.0 °F67 %30.42 in10.0 miNorthClear
8:55 PM14.0 °F5.0 °F67 %30.43 in10.0 miNorthClear
9:15 PM14.0 °F5.0 °F67 %30.45 in10.0 miNorthClear
9:35 PM14.0 °F5.0 °F67 %30.46 in10.0 miNorthClear
9:55 PM14.0 °F5.0 °F67 %30.47 in10.0 miNorthClear
10:15 PM14.0 °F5.0 °F67 %30.48 in10.0 miNorthClear
10:35 PM14.0 °F5.0 °F67 %30.48 in10.0 miNorthClear
10:55 PM14.0 °F5.0 °F67 %30.47 in10.0 miNorthClear
11:15 PM14.0 °F3.2 °F62 %30.47 in10.0 miNorthClear
11:35 PM12.2 °F3.2 °F67 %30.47 in10.0 miNorthClear
11:55 PM12.2 °F3.2 °F67 %30.46 in10.0 miNorthClear
Hourly data recorded from KGLY, located miles away from Windsor, Missouri







STORIES FROM OUR PARTNERS